Weather Roundup
Issued by NWS Springfield, MO

Home | Current Version | Previous Version | Text Only | Print | Product List | Glossary On
Versions: 1 2 3 4 5 6 7 8 9 10 11 12 13 14 15 16 17 18 19 20 21 22 23 24 25 26 27 28 29 30 31 32 33 34 35 36 37 38 39 40 41 42 43 44 45 46 47 48 49 50
000
NZUS99 KSGF 231507
HRRSGF

HOURLY WEATHER
NATIONAL WEATHER SERVICE SPRINGFIELD MO
1000 AM CDT SAT JUL 23 2016

......SGF CWA......

CITY           SKY/WX    TMP DP  RH WIND       PRES   REMARKS
SPRINGFIELD    SUNNY     89  74  60 SW7       30.02F HX  98
JOPLIN         SUNNY     89  74  60 SW10      30.01S HX  98
WEST PLAINS    SUNNY     88  76  67 CALM      30.05F HX  99
ROLLA          SUNNY     87  77  72 S6        30.00F HX  99
OSAGE BEACH    SUNNY     89  77  67 SW7       30.00F HX 101
BRANSON        SUNNY     88  75  66 CALM      30.04F HX  97

......SURROUNDING SGF CWA......

CITY           SKY/WX    TMP DP  RH WIND       PRES   REMARKS
CHANUTE        SUNNY     88  72  58 SW8       29.99S HX  94
PARSONS        SUNNY     88  73  61 SW7       30.01R HX  95
COFFEYVILLE    SUNNY     89  72  56 SW9       29.99S HX  96
EMPORIA        MOSUNNY   87  72  60 S9        29.96F HX  93
GROVE OK       SUNNY     90  75  62 SW7       30.02S HX 100
ROGERS AR      SUNNY     88  76  67 W6        30.05S HX  99
SILOAM SPRINGS SUNNY     88  70  55 SW5       30.05S HX  92
HARRISON AR    SUNNY     88  76  67 CALM      30.04F HX  99
NEAR YELLVILLE SUNNY     88  75  66 CALM      29.98F HX  97

......KANSAS AND MISSOURI......

CITY           SKY/WX    TMP DP  RH WIND       PRES   REMARKS
KANSAS CTY INT CLOUDY    87  74  64 S14       29.95F HX  95
DOWNTOWN KC    CLOUDY    88  73  61 S9        29.94F HX  95
COLUMBIA       SUNNY     88  77  69 SW8       29.99F HX 100
SEDALIA        SUNNY     89  76  65 SW9       30.00F HX 100
ST JOSEPH      CLOUDY    86  74  67 SW15G24   29.91F HX  94
ST LOUIS       MOSUNNY   87  71  58 S5        30.01S HX  93
SPIRIT OF STL  MOSUNNY   86  74  67 SE3       29.99S HX  94
KIRKSVILLE     MOSUNNY   87  76  69 SW6       29.98S HX  97
WICHITA        PTSUNNY   88  68  51 S12       29.95F HX  91
TOPEKA         CLOUDY    86  72  62 S10       29.93F HX  92
OLATHE         MOSUNNY   83  72  69 VRB7      29.98F

......TENNESSEE......

CITY           SKY/WX    TMP DP  RH WIND       PRES   REMARKS
MEMPHIS        CLOUDY    81  72  74 S13       30.01R
NASHVILLE      CLOUDY    85  75  72 CALM      30.03S HX  93

......ARKANSAS.......

CITY           SKY/WX    TMP DP  RH WIND       PRES   REMARKS
FAYETTEVILLE   SUNNY     88  79  74 S6        30.03F HX 103
FT SMITH       SUNNY     89  74  60 CALM      29.98F HX  98
LITTLE ROCK    SUNNY     91  76  61 SW5       29.97F HX 103

......OKLAHOMA.......

CITY           SKY/WX    TMP DP  RH WIND       PRES   REMARKS
TULSA          MOSUNNY   91  70  49 SW8       29.96F HX  96
PONCA CITY     SUNNY     89  69  51 S6        29.96F HX  93
MCALESTER      SUNNY     89  73  59 SW8       30.01R HX  97
OKLAHOMA CITY  MOSUNNY   88  67  49 S12       29.99F HX  91

......IOWA............

CITY           SKY/WX    TMP DP  RH WIND       PRES   REMARKS
DES MOINES     PTSUNNY   86  77  74 S12       29.87F HX  97
QUAD CITIES    MOSUNNY   87  78  74 SE8       29.96F HX 100

......ILLINOIS........

CITY           SKY/WX    TMP DP  RH WIND       PRES   REMARKS
QUINCY         SUNNY     85  74  69 S7        29.98S HX  92
CHICAGO        PTSUNNY   86  75  69 VRB3      29.98S HX  95



USA.gov is the U.S. government's official web portal to all federal, state and local government web resources and services.